Location: Kam�li
(14.6864°N, 3.1482°W)
Time: 02:02:12
(UTC+00:00)

Cosmos 1486 Rocket - Pass Details

Date: 29 October 2020
Orbit: 758 x 784 km, 74.1° (Epoch: 02 December)

Event Time Altitude Azimuth Distance (km) Brightness Sun altitude
Rises 18:55:02 0° 352° (N) 3,257 7.2 -17.4°
Reaches altitude 10° 18:57:27 10° 355° (N) 2,326 6.4 -18.0°
Maximum altitude 19:02:41 63° 76° (ENE) 863 3.9 -19.2°
Drops below altitude 10° 19:07:52 10° 157° (SSE) 2,309 6.3 -20.4°
Sets 19:10:15 0° 160° (SSE) 3,230 7.1 -21.0°
